Change the Weather History Date:

Thursday, October 17, 2013

  Actual Average Record
Temperature  
Mean Temperature 49 °F -  
Max Temperature 60 °F 63 °F 79 °F (2003)
Min Temperature 38 °F 37 °F 21 °F (1996)
Degree Days  
Heating Degree Days 16 15  
Month to date heating degree days 290 207  
Since 1 July heating degree days 397 368  
Cooling Degree Days 0 0  
Month to date cooling degree days 0 0  
Year to date cooling degree days 1138 678  
Moisture  
Dew Point 25 °F    
Average Humidity 42    
Maximum Humidity 53    
Minimum Humidity 31    
Precipitation  
Precipitation 0.00 in 0.04 in 0.21 in (1993)
Month to date precipitation 0.09 0.43  
Year to date precipitation 4.20 7.88  
Sea Level Pressure  
Sea Level Pressure 30.09 in    
Wind  
Wind Speed 13 mph (SW)    
Max Wind Speed 22 mph    
Max Gust Speed 28 mph    
Visibility 9 miles    
Events      
T = Trace of Precipitation, MM = Missing Value Source: NWS Daily Summary

Daily Weather History Graph

Daily Weather History Graph

Search for Another Location

Airport or City:

Trip Planner

Search our weather history database for the weather conditions in past years. The results will help you decide how hot, cold, wet, or windy it might be!

Date:

Astronomy

Oct. 17, 2013 Rise Set
Actual Time 7:53 AM MDT 6:52 PM MDT
Civil Twilight 7:25 AM MDT 7:20 PM MDT
Nautical Twilight 6:52 AM MDT 7:53 PM MDT
Astronomical Twilight 6:19 AM MDT 8:25 PM MDT
Moon 6:09 PM MDT (10/17) 6:29 AM MDT (10/17)
Length of Visible Light 11h 55m
Length of Day
10h 58m
Waxing Gibbous, 98% of the Moon is Illuminated
Oct 17
Waxing Gibbous
Oct 18
Full
Oct 26
Last Quarter
Nov 3
New
Nov 9
First Quarter

Hourly Weather History & Observations

Time (MDT) Temp. Windchill Dew Point Humidity Pressure Visibility Wind Dir Wind Speed Gust Speed Precip Events Conditions
12:53 AM 46.0 °F 41.0 °F 21.9 °F 39% 30.04 in 10.0 mi SSW 10.4 mph - N/A   Clear
1:53 AM 43.0 °F 37.2 °F 21.0 °F 42% 30.04 in 10.0 mi South 10.4 mph - N/A   Clear
2:53 AM 44.1 °F 38.6 °F 19.0 °F 37% 30.04 in 10.0 mi SSW 10.4 mph - N/A   Clear
3:53 AM 42.1 °F 35.7 °F 18.0 °F 38% 30.04 in 10.0 mi SSW 11.5 mph - N/A   Clear
4:53 AM 42.1 °F 35.7 °F 18.0 °F 38% 30.04 in 10.0 mi SSW 11.5 mph - N/A   Clear
5:53 AM 41.0 °F 34.3 °F 18.0 °F 40% 30.05 in 10.0 mi SSW 11.5 mph - N/A   Clear
6:53 AM 39.9 °F 33.9 °F 19.9 °F 45% 30.08 in 10.0 mi SSW 9.2 mph - N/A   Clear
7:53 AM 39.9 °F 33.4 °F 19.9 °F 45% 30.12 in 10.0 mi SSW 10.4 mph - N/A   Clear
8:53 AM 43.0 °F 37.2 °F 21.0 °F 42% 30.12 in 10.0 mi SSW 10.4 mph - N/A   Clear
9:53 AM 48.0 °F - 26.1 °F 42% 30.12 in 9.0 mi SW 12.7 mph - N/A   Clear
10:27 AM 50.0 °F - 26.6 °F 40% 30.16 in 2.5 mi WSW 13.8 mph - N/A   Haze
10:37 AM 50.0 °F - 28.4 °F 43% 30.16 in 3.0 mi West 12.7 mph - N/A   Haze
10:53 AM 52.0 °F - 28.0 °F 40% 30.11 in 4.0 mi West 12.7 mph - N/A   Haze
11:53 AM 54.0 °F - 28.9 °F 38% 30.09 in 10.0 mi West 12.7 mph 21.9 mph N/A   Clear
12:53 PM 57.0 °F - 30.0 °F 36% 30.08 in 10.0 mi West 18.4 mph 24.2 mph N/A   Clear
1:53 PM 57.9 °F - 30.9 °F 36% 30.07 in 10.0 mi West 18.4 mph 25.3 mph N/A   Clear
2:53 PM 59.0 °F - 30.9 °F 35% 30.05 in 10.0 mi West 15.0 mph 25.3 mph N/A   Clear
3:53 PM 59.0 °F - 30.0 °F 33% 30.05 in 10.0 mi West 17.3 mph 24.2 mph N/A   Clear
4:53 PM 59.0 °F - 28.9 °F 32% 30.06 in 10.0 mi West 18.4 mph 23.0 mph N/A   Clear
5:53 PM 55.9 °F - 28.9 °F 36% 30.06 in 10.0 mi West 13.8 mph - N/A   Clear
6:53 PM 50.0 °F - 28.0 °F 43% 30.09 in 10.0 mi WSW 9.2 mph - N/A   Clear
7:53 PM 43.0 °F 37.7 °F 27.0 °F 53% 30.12 in 10.0 mi South 9.2 mph - N/A   Clear
8:53 PM 43.0 °F 36.8 °F 25.0 °F 49% 30.12 in 10.0 mi South 11.5 mph - N/A   Clear
9:53 PM 43.0 °F 36.4 °F 25.0 °F 49% 30.12 in 10.0 mi South 12.7 mph - N/A   Clear
10:53 PM 44.1 °F 37.1 °F 25.0 °F 47% 30.11 in 10.0 mi South 15.0 mph - N/A   Clear
11:53 PM 45.0 °F 39.3 °F 26.1 °F 48% 30.12 in 10.0 mi South 11.5 mph - N/A   Clear